Terminal Aerodrome Forecast
Issued by NWS

Home | Current Version | Previous Version | Text Only | Print | Product List | Glossary On
Versions: 1 2 3 4 5 6 7 8 9 10 11 12 13 14
000
FTUS42 TJSJ 282320
TAFJPS
TAF
TJPS 282320Z 2900/2924 10010KT P6SM VCSH SCT025 BKN050 BKN100
     FM290230 07005KT P6SM FEW025 SCT050 BKN120
     FM291500 11012KT P6SM VCSH SCT025 BKN060
      AMD NOT SKED TIL 290300=

USA.gov is the U.S. government's official web portal to all federal, state and local government web resources and services.